HZ102 OERK-OEDF

Flight info

Callsign HZ102
Flight time 0h 42m
Altitude 31000
Route EGPIN H744 ITUNI N687 MIBRA
Aircraft C750/M-SBDE3FGHRWXY/S

Departure

Time 2026-04-23 23:04
Airport King Khalid International Airport (OERK)

Arrival

Time 2026-04-23 23:46
Airport King Fahd International Airport (OEDF)
Time Latitude Longitude Altitude Speed Heading
2026-04-23 23:03 25.20580 46.93062 12049 ft 413 kts 74°
2026-04-23 23:04 25.21407 46.96112 12533 ft 416 kts 74°
2026-04-23 23:04 25.22217 46.99185 13078 ft 417 kts 75°
2026-04-23 23:04 25.23018 47.02271 13565 ft 420 kts 75°
2026-04-23 23:04 25.23837 47.05378 13988 ft 423 kts 74°
2026-04-23 23:05 25.24668 47.08514 14407 ft 426 kts 74°
2026-04-23 23:05 25.25497 47.11659 14819 ft 429 kts 74°
2026-04-23 23:05 25.26328 47.14837 15208 ft 432 kts 74°
2026-04-23 23:05 25.27165 47.18030 15630 ft 434 kts 74°
2026-04-23 23:06 25.28012 47.21250 15992 ft 438 kts 73°
2026-04-23 23:06 25.28862 47.24492 16422 ft 441 kts 73°
2026-04-23 23:06 25.29714 47.27755 16857 ft 444 kts 73°
2026-04-23 23:06 25.30574 47.31044 17310 ft 446 kts 73°
2026-04-23 23:07 25.31438 47.34347 17745 ft 450 kts 73°
2026-04-23 23:07 25.32305 47.37673 18202 ft 453 kts 73°
2026-04-23 23:07 25.33184 47.41037 18567 ft 457 kts 73°
2026-04-23 23:07 25.34074 47.44427 18969 ft 460 kts 73°
2026-04-23 23:08 25.34960 47.47833 19389 ft 463 kts 73°
2026-04-23 23:08 25.35849 47.51266 19808 ft 465 kts 73°
2026-04-23 23:08 25.36743 47.54713 20238 ft 468 kts 73°
2026-04-23 23:08 25.37645 47.58180 20660 ft 469 kts 73°
2026-04-23 23:09 25.38550 47.61671 20979 ft 475 kts 73°
2026-04-23 23:09 25.39457 47.65184 21420 ft 477 kts 73°
2026-04-23 23:09 25.40372 47.68720 21841 ft 479 kts 73°
2026-04-23 23:09 25.41562 47.72173 22201 ft 482 kts 64°
2026-04-23 23:10 25.42496 47.74400 22485 ft 483 kts 64°
2026-04-23 23:10 25.44349 47.78953 23049 ft 487 kts 65°
2026-04-23 23:10 25.45721 47.82388 23455 ft 490 kts 65°
2026-04-23 23:10 25.47127 47.85834 23812 ft 492 kts 64°
2026-04-23 23:11 25.48550 47.89288 24149 ft 495 kts 64°
2026-04-23 23:11 25.49962 47.92769 24486 ft 497 kts 65°
2026-04-23 23:11 25.51371 47.96274 24817 ft 499 kts 65°
2026-04-23 23:11 25.52314 47.98602 25037 ft 501 kts 65°
2026-04-23 23:12 25.53750 48.02121 25377 ft 503 kts 64°
2026-04-23 23:12 25.55191 48.05654 25692 ft 505 kts 64°
2026-04-23 23:12 25.56636 48.09221 25993 ft 508 kts 64°
2026-04-23 23:12 25.58569 48.14010 26378 ft 511 kts 64°
2026-04-23 23:13 25.60008 48.17564 26620 ft 510 kts 64°
2026-04-23 23:13 25.61451 48.21130 26640 ft 510 kts 64°
2026-04-23 23:13 25.62910 48.24743 26638 ft 518 kts 64°
2026-04-23 23:13 25.63907 48.27216 26638 ft 523 kts 64°
2026-04-23 23:14 25.65884 48.32127 26624 ft 527 kts 64°
2026-04-23 23:14 25.66869 48.34575 26351 ft 503 kts 64°
2026-04-23 23:14 25.68267 48.38017 25885 ft 478 kts 63°
2026-04-23 23:14 25.69924 48.41173 25434 ft 473 kts 54°
2026-04-23 23:15 25.71708 48.44236 24945 ft 472 kts 55°
2026-04-23 23:15 25.73470 48.47329 24458 ft 474 kts 55°
2026-04-23 23:15 25.75216 48.50412 23978 ft 470 kts 55°
2026-04-23 23:15 25.76968 48.53464 23488 ft 467 kts 55°
2026-04-23 23:16 25.78711 48.56488 22971 ft 463 kts 55°
2026-04-23 23:16 25.80428 48.59494 22497 ft 460 kts 56°
2026-04-23 23:16 25.82132 48.62490 22025 ft 457 kts 56°
2026-04-23 23:16 25.83826 48.65457 21566 ft 454 kts 55°
2026-04-23 23:17 25.85507 48.68395 21102 ft 448 kts 55°
2026-04-23 23:17 25.87168 48.71307 20655 ft 444 kts 56°
2026-04-23 23:17 25.88815 48.74200 20218 ft 441 kts 56°
2026-04-23 23:17 25.90447 48.77066 19779 ft 438 kts 56°
2026-04-23 23:18 25.92048 48.79877 19361 ft 434 kts 56°
2026-04-23 23:18 25.93653 48.82699 18927 ft 431 kts 56°
2026-04-23 23:18 25.95262 48.85488 18501 ft 427 kts 54°
2026-04-23 23:18 25.96916 48.88214 18046 ft 424 kts 55°
2026-04-23 23:19 25.98515 48.90947 17616 ft 420 kts 55°
2026-04-23 23:19 26.00097 48.93647 17196 ft 416 kts 54°
2026-04-23 23:19 26.01704 48.96324 16771 ft 415 kts 54°
2026-04-23 23:19 26.03299 48.98982 16346 ft 412 kts 54°
2026-04-23 23:20 26.04872 49.01640 15929 ft 411 kts 55°
2026-04-23 23:20 26.06436 49.04290 15516 ft 408 kts 55°
2026-04-23 23:20 26.07999 49.06919 15103 ft 407 kts 55°
2026-04-23 23:20 26.09557 49.09537 14684 ft 405 kts 55°
2026-04-23 23:21 26.11101 49.12144 14277 ft 403 kts 55°
2026-04-23 23:21 26.12637 49.14741 13867 ft 401 kts 55°
2026-04-23 23:21 26.14167 49.17323 13422 ft 398 kts 55°
2026-04-23 23:21 26.15685 49.19887 13020 ft 395 kts 55°
2026-04-23 23:22 26.17188 49.22430 12615 ft 392 kts 55°
2026-04-23 23:22 26.18681 49.24955 12220 ft 389 kts 55°
2026-04-23 23:22 26.20159 49.27457 11823 ft 387 kts 55°
2026-04-23 23:22 26.21635 49.29956 11429 ft 384 kts 55°
2026-04-23 23:23 26.23098 49.32436 11036 ft 380 kts 56°
2026-04-23 23:23 26.24525 49.34858 10548 ft 358 kts 55°
2026-04-23 23:23 26.25853 49.37115 10082 ft 339 kts 55°
2026-04-23 23:23 26.27115 49.39256 9652 ft 323 kts 55°
2026-04-23 23:24 26.28329 49.41316 9266 ft 313 kts 55°
2026-04-23 23:24 26.29516 49.43332 8936 ft 310 kts 55°
2026-04-23 23:24 26.30678 49.45306 8631 ft 308 kts 55°
2026-04-23 23:24 26.31862 49.47320 8332 ft 306 kts 55°
2026-04-23 23:25 26.33010 49.49271 8042 ft 304 kts 55°
2026-04-23 23:25 26.34166 49.51239 7752 ft 303 kts 55°
2026-04-23 23:25 26.35303 49.53210 7448 ft 300 kts 57°
2026-04-23 23:25 26.35924 49.55415 7045 ft 300 kts 86°
2026-04-23 23:26 26.35633 49.57677 6770 ft 293 kts 111°
2026-04-23 23:26 26.34599 49.59590 6546 ft 286 kts 128°
2026-04-23 23:26 26.33371 49.61343 6333 ft 287 kts 130°
2026-04-23 23:26 26.32141 49.63096 6067 ft 287 kts 129°
2026-04-23 23:27 26.30928 49.64855 5785 ft 285 kts 129°
2026-04-23 23:27 26.29724 49.66604 5504 ft 283 kts 129°
2026-04-23 23:27 26.28545 49.68310 5232 ft 270 kts 129°
2026-04-23 23:27 26.27427 49.69925 4959 ft 261 kts 129°
2026-04-23 23:28 26.26313 49.71528 4713 ft 261 kts 129°
2026-04-23 23:28 26.25267 49.73171 4457 ft 261 kts 120°
2026-04-23 23:28 26.24900 49.75150 4182 ft 263 kts 86°
2026-04-23 23:28 26.25279 49.77119 3986 ft 260 kts 71°
2026-04-23 23:29 26.25787 49.79010 3797 ft 248 kts 70°
2026-04-23 23:29 26.26259 49.80806 3584 ft 236 kts 70°
2026-04-23 23:29 26.26878 49.82435 3330 ft 224 kts 50°
2026-04-23 23:29 26.27866 49.83741 3111 ft 219 kts 43°
2026-04-23 23:30 26.28852 49.85000 2901 ft 212 kts 43°
2026-04-23 23:30 26.29787 49.86214 2884 ft 203 kts 44°
2026-04-23 23:30 26.30932 49.87018 2816 ft 194 kts
2026-04-23 23:30 26.32171 49.86649 2871 ft 189 kts 318°
2026-04-23 23:31 26.33011 49.85538 2858 ft 193 kts 319°
2026-04-23 23:31 26.34256 49.84926 2687 ft 198 kts 337°
2026-04-23 23:31 26.35554 49.84449 2490 ft 192 kts 341°
2026-04-23 23:31 26.36849 49.84024 2035 ft 200 kts 341°
2026-04-23 23:32 26.38122 49.83628 1780 ft 174 kts 342°
2026-04-23 23:32 26.39201 49.83313 1440 ft 150 kts 343°
2026-04-23 23:32 26.40161 49.83049 1143 ft 133 kts 341°
2026-04-23 23:32 26.41010 49.82785 922 ft 121 kts 343°
2026-04-23 23:33 26.41788 49.82581 810 ft 111 kts 341°
2026-04-23 23:33 26.42538 49.82340 693 ft 112 kts 339°
2026-04-23 23:33 26.43278 49.82090 580 ft 112 kts 338°
2026-04-23 23:33 26.44028 49.81874 406 ft 111 kts 338°
2026-04-23 23:34 26.44773 49.81638 241 ft 113 kts 339°
2026-04-23 23:34 26.45538 49.81399 117 ft 115 kts 338°
2026-04-23 23:34 26.46236 49.81179 89 ft 94 kts 337°
2026-04-23 23:34 26.46959 49.80913 242 ft 128 kts 336°
2026-04-23 23:35 26.47888 49.80613 607 ft 150 kts 336°
2026-04-23 23:35 26.48938 49.80193 1102 ft 167 kts 334°
2026-04-23 23:35 26.50061 49.79638 1547 ft 194 kts 334°
2026-04-23 23:35 26.51422 49.79045 1716 ft 216 kts 340°
2026-04-23 23:36 26.52860 49.78577 1865 ft 223 kts 342°
2026-04-23 23:36 26.54405 49.78073 2106 ft 238 kts 342°
2026-04-23 23:36 26.56024 49.77565 2676 ft 246 kts 341°
2026-04-23 23:36 26.57603 49.77071 2877 ft 232 kts 335°
2026-04-23 23:37 26.58767 49.75851 2854 ft 230 kts 294°
2026-04-23 23:37 26.58875 49.74128 2851 ft 234 kts 253°
2026-04-23 23:37 26.57872 49.72691 2875 ft 244 kts 214°
2026-04-23 23:37 26.56225 49.72306 2885 ft 249 kts 175°
2026-04-23 23:38 26.54542 49.72801 2922 ft 251 kts 162°
2026-04-23 23:38 26.52868 49.73411 2908 ft 254 kts 162°
2026-04-23 23:38 26.51178 49.74020 2900 ft 263 kts 162°
2026-04-23 23:38 26.49414 49.74660 2892 ft 269 kts 162°
2026-04-23 23:39 26.47612 49.75320 2893 ft 273 kts 162°
2026-04-23 23:39 26.45802 49.76000 2889 ft 274 kts 162°
2026-04-23 23:39 26.43998 49.76684 2886 ft 274 kts 162°
2026-04-23 23:39 26.42196 49.77371 2880 ft 274 kts 162°
2026-04-23 23:40 26.40391 49.78060 2875 ft 274 kts 162°
2026-04-23 23:40 26.38594 49.78749 2871 ft 271 kts 162°
2026-04-23 23:40 26.36851 49.79416 2806 ft 264 kts 162°
2026-04-23 23:40 26.35108 49.80076 2652 ft 265 kts 162°
2026-04-23 23:41 26.33364 49.80726 2485 ft 259 kts 162°
2026-04-23 23:41 26.31738 49.81345 2320 ft 234 kts 157°
2026-04-23 23:41 26.30611 49.82523 1963 ft 221 kts 112°
2026-04-23 23:41 26.30525 49.84110 1649 ft 199 kts 64°
2026-04-23 23:42 26.31430 49.85101 1676 ft 178 kts 21°
2026-04-23 23:42 26.32635 49.85449 1828 ft 183 kts 352°
2026-04-23 23:42 26.33841 49.85019 1923 ft 186 kts 339°
2026-04-23 23:42 26.35082 49.84623 1905 ft 185 kts 342°
2026-04-23 23:43 26.36333 49.84234 1848 ft 189 kts 341°
2026-04-23 23:43 26.37561 49.83856 1585 ft 171 kts 342°
2026-04-23 23:43 26.38688 49.83507 1356 ft 164 kts 341°
2026-04-23 23:43 26.39769 49.83177 1149 ft 161 kts 342°
2026-04-23 23:44 26.40848 49.82839 945 ft 157 kts 341°
2026-04-23 23:44 26.41815 49.82549 781 ft 133 kts 339°
2026-04-23 23:44 26.42661 49.82286 633 ft 120 kts 339°
2026-04-23 23:44 26.43420 49.82049 476 ft 110 kts 337°
2026-04-23 23:45 26.44146 49.81830 361 ft 107 kts 337°
2026-04-23 23:45 26.44893 49.81590 225 ft 116 kts 336°
2026-04-23 23:45 26.45681 49.81360 123 ft 115 kts 340°
2026-04-23 23:45 26.46404 49.81130 85 ft 99 kts 343°
2026-04-23 23:46 26.46986 49.80946 82 ft 80 kts 346°
2026-04-23 23:46 26.47438 49.80810 81 ft 45 kts 344°
2026-04-23 23:46 26.47651 49.80741 83 ft 30 kts 345°
2026-04-23 23:46 26.47880 49.80684 85 ft 32 kts
2026-04-23 23:47 26.47954 49.80835 84 ft 27 kts 75°
2026-04-23 23:47 26.47984 49.80956 83 ft 8 kts 74°
2026-04-23 23:47 26.48009 49.81054 84 ft 18 kts 75°
2026-04-23 23:47 26.47950 49.81113 82 ft 0 kts 162°
2026-04-23 23:48 26.47918 49.81125 82 ft 10 kts 162°
2026-04-23 23:48 26.47907 49.81158 82 ft 7 kts 70°
2026-04-23 23:48 26.47926 49.81168 82 ft 5 kts 348°
2026-04-23 23:48 26.47945 49.81162 85 ft 1 kts 342°
2026-04-23 23:49 26.47947 49.81162 85 ft 0 kts 343°
2026-04-23 23:49 26.47951 49.81161 83 ft 0 kts 345°